N5LOW Weather Reports


Display with metric or nautical units.
time (UTC)temp
F
wind
direction
speed
MPH
gust
MPH
rain 1hr
in
rain 24hr
in
rain mn
in
humidity
%
barometer
mb
20210924070002 0 112 0.0 0.0 0.00 0.00 0.00 1018.2
20210924065502 0 159 1.0 2.0 0.00 0.00 0.00 1018.3
20210924065002 0 112 0.0 0.0 0.00 0.00 0.00 1018.6
20210924064502 0 114 0.0 0.0 0.00 0.00 0.00 1018.2
20210924064003 0 108 0.0 0.0 0.00 0.00 0.00 1018.1
20210924063501 0 112 0.0 0.0 0.00 0.00 0.00 1018.3
20210924063002 0 107 0.0 0.0 0.00 0.00 0.00 1018.3
20210924062502 0 108 0.0 0.0 0.00 0.00 0.00 1018.1
20210924062003 0 106 0.0 0.0 0.00 0.00 0.00 1018.1
20210924061502 0 106 0.0 0.0 0.00 0.00 0.00 1018.3
20210924061002 0 107 0.0 0.0 0.00 0.00 0.00 1018.2
20210924060502 0 105 0.0 0.0 0.00 0.00 0.00 1018.0
20210924060002 0 105 0.0 0.0 0.00 0.00 0.00 1017.9
20210924055502 0 107 0.0 0.0 0.00 0.00 0.00 1018.1
20210924055002 0 112 0.0 0.0 0.00 0.00 0.00 1018.2
20210924054502 0 103 0.0 0.0 0.00 0.00 0.00 1018.2
20210924054002 0 103 0.0 0.0 0.00 0.00 0.00 1018.1
20210924053502 0 103 0.0 0.0 0.00 0.00 0.00 1018.5
20210924053002 0 103 0.0 0.0 0.00 0.00 0.00 1018.1
20210924052502 0 104 0.0 0.0 0.00 0.00 0.00 1018.1
20210924052003 0 105 0.0 0.0 0.00 0.00 0.00 1018.2
20210924051501 0 106 1.0 2.0 0.00 0.00 0.00 1018.2
20210924051002 0 100 0.0 0.0 0.00 0.00 0.00 1018.3
20210924050502 0 100 0.0 0.0 0.00 0.00 0.00 1018.3
20210924050002 0 100 0.0 0.0 0.00 0.00 0.00 1018.5
20210924045502 0 100 0.0 0.0 0.00 0.00 0.00 1018.5
20210924045002 0 100 0.0 0.0 0.00 0.00 0.00 1018.7
20210924044502 0 100 0.0 0.0 0.00 0.00 0.00 1018.4
20210924044002 0 157 3.0 3.0 0.00 0.00 0.00 1018.6
20210924043503 0 104 0.0 0.0 0.00 0.00 0.00 1018.6
20210924043003 0 104 0.0 0.0 0.00 0.00 0.00 1018.5
20210924042502 0 104 0.0 0.0 0.00 0.00 0.00 1018.5
20210924042002 0 104 0.0 0.0 0.00 0.00 0.00 1018.7
20210924041503 0 104 0.0 0.0 0.00 0.00 0.00 1018.5
20210924041002 0 103 0.0 0.0 0.00 0.00 0.00 1018.4
20210924040502 0 108 3.0 4.0 0.00 0.00 0.00 1018.5
20210924040002 0 113 0.0 0.0 0.00 0.00 0.00 1018.5
20210924035502 0 100 0.0 0.0 0.00 0.00 0.00 1018.5
20210924035002 0 104 0.0 0.0 0.00 0.00 0.00 1018.5
20210924034502 0 102 0.0 0.0 0.00 0.00 0.00 1018.5
20210924034002 0 106 0.0 0.0 0.00 0.00 0.00 1018.7
20210924033502 0 138 3.0 4.0 0.00 0.00 0.00 1018.5
20210924033002 0 109 0.0 0.0 0.00 0.00 0.00 1018.5
20210924032502 0 110 0.0 0.0 0.00 0.00 0.00 1018.6
20210924032002 0 112 0.0 0.0 0.00 0.00 0.00 1018.5
20210924031503 0 114 0.0 0.0 0.00 0.00 0.00 1018.6
20210924031002 0 185 2.0 3.0 0.00 0.00 0.00 1018.8
20210924030501 0 109 0.0 0.0 0.00 0.00 0.00 1018.5
20210924030003 0 112 0.0 0.0 0.00 0.00 0.00 1018.5
20210924025502 0 115 0.0 0.0 0.00 0.00 0.00 1018.5
20210924025002 0 143 2.0 3.0 0.00 0.00 0.00 1018.3
20210924024502 0 147 1.0 2.0 0.00 0.00 0.00 1018.5
20210924024002 0 177 3.0 3.0 0.00 0.00 0.00 1018.4
20210924023501 0 111 0.0 0.0 0.00 0.00 0.00 1018.5
20210924022502 0 135 2.0 3.0 0.00 0.00 0.00 1018.3
20210924022002 0 136 1.0 2.0 0.00 0.00 0.00 1018.4
20210924021502 0 138 2.0 2.0 0.00 0.00 0.00 1018.6
20210924021002 0 158 2.0 3.0 0.00 0.00 0.00 1018.4
20210924020502 0 159 2.0 3.0 0.00 0.00 0.00 1018.2
20210924020002 0 143 2.0 3.0 0.00 0.00 0.00 1018.2
20210924015502 0 147 2.0 3.0 0.00 0.00 0.00 1018.0
20210924015002 0 137 2.0 3.0 0.00 0.00 0.00 1018.3
20210924014502 0 215 2.0 3.0 0.00 0.00 0.00 1018.1
20210924014002 0 143 1.0 2.0 0.00 0.00 0.00 1018.2
20210924013503 0 102 2.0 3.0 0.00 0.00 0.00 1018.0
20210924013002 0 117 0.0 0.0 0.00 0.00 0.00 1018.1
20210924012502 0 148 2.0 3.0 0.00 0.00 0.00 1017.8
20210924012002 0 138 1.0 2.0 0.00 0.00 0.00 1018.1
20210924011502 0 137 3.0 4.0 0.00 0.00 0.00 1017.9
20210924011001 0 160 1.0 3.0 0.00 0.00 0.00 1017.6
20210924010502 0 149 2.0 3.0 0.00 0.00 0.00 1017.9
20210924010003 0 141 3.0 4.0 0.00 0.00 0.00 1018.0
20210924005503 0 135 1.0 2.0 0.00 0.00 0.00 1017.8
20210924005003 0 196 1.0 3.0 0.00 0.00 0.00 1017.9
20210924004501 0 114 2.0 2.0 0.00 0.00 0.00 1017.8
20210924004002 0 137 1.0 2.0 0.00 0.00 0.00 1017.9
20210924003502 0 106 2.0 3.0 0.00 0.00 0.00 1017.9
20210924003001 0 132 0.0 0.0 0.00 0.00 0.00 1017.8
20210924002502 0 111 2.0 3.0 0.00 0.00 0.00 1017.8
20210924002003 0 171 2.0 4.0 0.00 0.00 0.00 1017.7
20210924001502 0 105 0.0 0.0 0.00 0.00 0.00 1017.8
20210924001002 0 115 1.0 3.0 0.00 0.00 0.00 1017.9
20210924000502 0 128 1.0 2.0 0.00 0.00 0.00 1017.6
20210924000002 0 123 2.0 3.0 0.00 0.00 0.00 1017.8
20210923235502 0 114 0.0 0.0 0.00 0.00 0.00 1017.7
20210923235002 0 107 1.0 2.0 0.00 0.00 0.00 1017.8
20210923234501 0 136 2.0 3.0 0.00 0.00 0.00 1017.8
20210923234002 0 146 3.0 4.0 0.00 0.00 0.00 1017.8
20210923233503 0 83 1.0 3.0 0.00 0.00 0.00 1017.8
20210923233002 0 181 2.0 3.0 0.00 0.00 0.00 1018.1
20210923232502 0 181 3.0 5.0 0.00 0.00 0.00 1017.9
20210923232002 0 145 2.0 3.0 0.00 0.00 0.00 1017.8
20210923231502 0 202 3.0 4.0 0.00 0.00 0.00 1017.9
20210923231002 0 170 3.0 4.0 0.00 0.00 0.00 1018.0
20210923230502 0 186 4.0 5.0 0.00 0.00 0.00 1018.0
20210923230003 0 149 1.0 2.0 0.00 0.00 0.00 1018.0
20210923225502 0 184 2.0 3.0 0.00 0.00 0.00 1018.0
20210923225002 0 201 2.0 4.0 0.00 0.00 0.00 1018.1
20210923224502 0 119 1.0 2.0 0.00 0.00 0.00 1017.9
20210923224002 0 188 2.0 3.0 0.00 0.00 0.00 1017.7
20210923223501 0 204 3.0 4.0 0.00 0.00 0.00 1018.0
20210923223002 0 137 4.0 5.0 0.00 0.00 0.00 1017.9
20210923222502 0 163 3.0 4.0 0.00 0.00 0.00 1018.0
20210923222001 0 199 2.0 4.0 0.00 0.00 0.00 1017.8
20210923221502 0 127 2.0 5.0 0.00 0.00 0.00 1017.9
20210923221002 0 171 1.0 2.0 0.00 0.00 0.00 1017.9
20210923220502 0 200 4.0 5.0 0.00 0.00 0.00 1018.0
20210923220002 0 265 2.0 3.0 0.00 0.00 0.00 1017.7
20210923215502 0 161 5.0 6.0 0.00 0.00 0.00 1018.0
20210923215002 0 97 1.0 2.0 0.00 0.00 0.00 1018.0
20210923214501 0 192 3.0 5.0 0.00 0.00 0.00 1018.1
20210923214002 0 181 5.0 6.0 0.00 0.00 0.00 1018.1
20210923213502 0 172 3.0 4.0 0.00 0.00 0.00 1018.1
20210923213003 0 210 2.0 3.0 0.00 0.00 0.00 1018.0
20210923212502 0 214 2.0 4.0 0.00 0.00 0.00 1018.0
20210923212002 0 100 1.0 2.0 0.00 0.00 0.00 1018.0
20210923211502 0 160 3.0 4.0 0.00 0.00 0.00 1018.0
20210923211003 0 165 2.0 3.0 0.00 0.00 0.00 1017.7
20210923210502 0 104 1.0 2.0 0.00 0.00 0.00 1017.8
20210923210002 0 138 2.0 3.0 0.00 0.00 0.00 1018.0
20210923205502 0 58 1.0 3.0 0.00 0.00 0.00 1018.0
20210923205002 0 86 2.0 3.0 0.00 0.00 0.00 1017.9
20210923204502 0 100 1.0 2.0 0.00 0.00 0.00 1018.0
20210923204002 0 78 2.0 3.0 0.00 0.00 0.00 1018.2
20210923203502 0 100 2.0 3.0 0.00 0.00 0.00 1018.1
20210923203002 0 124 3.0 4.0 0.00 0.00 0.00 1018.3
20210923202502 0 76 1.0 2.0 0.00 0.00 0.00 1018.3
20210923202002 0 149 2.0 3.0 0.00 0.00 0.00 1018.2
20210923201503 0 36 2.0 5.0 0.00 0.00 0.00 1018.2
20210923201002 0 339 2.0 3.0 0.00 0.00 0.00 1018.3
20210923200502 0 24 4.0 4.0 0.00 0.00 0.00 1018.4
20210923200002 0 14 4.0 6.0 0.00 0.00 0.00 1018.5
20210923195502 0 304 3.0 5.0 0.00 0.00 0.00 1018.5
20210923195002 0 328 3.0 4.0 0.00 0.00 0.00 1018.6
20210923194502 0 124 2.0 3.0 0.00 0.00 0.00 1018.6
20210923194003 0 168 1.0 2.0 0.00 0.00 0.00 1018.7
20210923193502 0 155 3.0 4.0 0.00 0.00 0.00 1018.9
20210923193002 0 91 0.0 0.0 0.00 0.00 0.00 1019.0
20210923192503 0 154 1.0 2.0 0.00 0.00 0.00 1019.1
20210923192002 0 22 3.0 4.0 0.00 0.00 0.00 1019.1
20210923191502 0 113 2.0 3.0 0.00 0.00 0.00 1019.2
20210923191002 0 76 2.0 3.0 0.00 0.00 0.00 1019.1
20210923190502 0 80 2.0 3.0 0.00 0.00 0.00 1019.4
20210923190002 0 77 2.0 4.0 0.00 0.00 0.00 1019.2
20210923185502 0 351 6.0 6.0 0.00 0.00 0.00 1019.5
20210923185002 0 124 0.0 0.0 0.00 0.00 0.00 1019.7
20210923184503 0 113 2.0 3.0 0.00 0.00 0.00 1019.7
20210923184002 0 88 2.0 3.0 0.00 0.00 0.00 1019.6
20210923183502 0 94 3.0 4.0 0.00 0.00 0.00 1019.8
20210923183002 0 67 3.0 5.0 0.00 0.00 0.00 1019.8
20210923182502 0 173 1.0 2.0 0.00 0.00 0.00 1020.0
20210923182002 0 354 4.0 5.0 0.00 0.00 0.00 1020.1
20210923181502 0 55 3.0 4.0 0.00 0.00 0.00 1020.1
20210923181002 0 79 3.0 4.0 0.00 0.00 0.00 1019.9
20210923180502 0 18 4.0 5.0 0.00 0.00 0.00 1020.3
20210923180002 0 78 3.0 4.0 0.00 0.00 0.00 1020.1
20210923175502 0 93 2.0 3.0 0.00 0.00 0.00 1020.3
20210923175002 0 64 2.0 3.0 0.00 0.00 0.00 1020.4
20210923174502 0 105 4.0 6.0 0.00 0.00 0.00 1020.3
20210923174002 0 92 2.0 3.0 0.00 0.00 0.00 1020.5
20210923173502 0 27 3.0 4.0 0.00 0.00 0.00 1020.3
20210923173006 0 81 3.0 5.0 0.00 0.00 0.00 1020.5
20210923172502 0 11 6.0 6.0 0.00 0.00 0.00 1020.4
20210923172005 0 124 3.0 4.0 0.00 0.00 0.00 1020.6
20210923171502 0 83 3.0 5.0 0.00 0.00 0.00 1020.5
20210923171008 0 51 5.0 7.0 0.00 0.00 0.00 1020.7
20210923170002 0 89 1.0 2.0 0.00 0.00 0.00 1020.6
20210923165502 0 15 5.0 7.0 0.00 0.00 0.00 1020.6
20210923165002 0 13 4.0 9.0 0.00 0.00 0.00 1020.8
20210923164502 0 58 4.0 5.0 0.00 0.00 0.00 1020.7
20210923164002 0 35 6.0 7.0 0.00 0.00 0.00 1020.8
20210923163502 0 29 3.0 4.0 0.00 0.00 0.00 1020.9
20210923163002 0 145 2.0 3.0 0.00 0.00 0.00 1020.9
20210923162503 0 84 2.0 2.0 0.00 0.00 0.00 1020.8
20210923162002 0 12 5.0 6.0 0.00 0.00 0.00 1020.7
20210923161502 0 52 4.0 5.0 0.00 0.00 0.00 1020.8
20210923161002 0 71 3.0 3.0 0.00 0.00 0.00 1020.8
20210923160502 0 28 3.0 6.0 0.00 0.00 0.00 1020.8
20210923160002 0 26 3.0 4.0 0.00 0.00 0.00 1021.0
20210923155503 0 85 2.0 3.0 0.00 0.00 0.00 1021.1
20210923155002 0 69 1.0 2.0 0.00 0.00 0.00 1021.1
20210923154502 0 96 2.0 3.0 0.00 0.00 0.00 1021.0
20210923154002 0 130 1.0 2.0 0.00 0.00 0.00 1021.0
20210923153501 0 30 4.0 6.0 0.00 0.00 0.00 1021.0
20210923153002 0 62 3.0 4.0 0.00 0.00 0.00 1021.1
20210923152502 0 39 4.0 6.0 0.00 0.00 0.00 1020.9
20210923152002 0 89 1.0 2.0 0.00 0.00 0.00 1020.9
20210923151502 0 52 3.0 5.0 0.00 0.00 0.00 1020.7
20210923151002 0 74 2.0 4.0 0.00 0.00 0.00 1020.7
20210923150502 0 85 0.0 0.0 0.00 0.00 0.00 1020.8
20210923150002 0 47 3.0 4.0 0.00 0.00 0.00 1020.6
20210923145502 0 78 2.0 4.0 0.00 0.00 0.00 1020.7
20210923145002 0 6 4.0 7.0 0.00 0.00 0.00 1020.8
20210923144502 0 61 3.0 3.0 0.00 0.00 0.00 1020.8
20210923144002 0 16 5.0 6.0 0.00 0.00 0.00 1020.7
20210923143503 0 94 2.0 3.0 0.00 0.00 0.00 1020.8
20210923143002 0 66 3.0 5.0 0.00 0.00 0.00 1020.7
20210923142503 0 86 3.0 5.0 0.00 0.00 0.00 1020.5
20210923142002 0 37 3.0 5.0 0.00 0.00 0.00 1020.7
20210923141502 0 51 2.0 4.0 0.00 0.00 0.00 1020.7
20210923141003 0 90 0.0 0.0 0.00 0.00 0.00 1020.6
20210923140502 0 64 2.0 3.0 0.00 0.00 0.00 1020.9
20210923140002 0 81 1.0 2.0 0.00 0.00 0.00 1020.8
20210923135502 0 102 3.0 4.0 0.00 0.00 0.00 1020.7
20210923135002 0 30 3.0 4.0 0.00 0.00 0.00 1020.7
20210923134502 0 53 2.0 4.0 0.00 0.00 0.00 1020.4
20210923134002 0 1 3.0 4.0 0.00 0.00 0.00 1020.5
20210923133502 0 68 2.0 3.0 0.00 0.00 0.00 1020.7
20210923133002 0 97 1.0 2.0 0.00 0.00 0.00 1020.7
20210923132502 0 77 2.0 3.0 0.00 0.00 0.00 1020.7
20210923132002 0 85 2.0 2.0 0.00 0.00 0.00 1020.5
20210923131502 0 109 1.0 3.0 0.00 0.00 0.00 1020.5
20210923131002 0 49 4.0 5.0 0.00 0.00 0.00 1020.6
20210923130502 0 98 2.0 3.0 0.00 0.00 0.00 1020.5
20210923130002 0 102 1.0 2.0 0.00 0.00 0.00 1020.3
20210923125502 0 112 1.0 2.0 0.00 0.00 0.00 1020.4
20210923125002 0 63 1.0 2.0 0.00 0.00 0.00 1020.4
20210923124502 0 82 1.0 2.0 0.00 0.00 0.00 1020.4
20210923124002 0 103 0.0 0.0 0.00 0.00 0.00 1020.2
20210923123502 0 91 0.0 0.0 0.00 0.00 0.00 1020.5
20210923123002 0 59 2.0 2.0 0.00 0.00 0.00 1020.3
20210923122502 0 83 0.0 0.0 0.00 0.00 0.00 1020.3
20210923122002 0 99 2.0 3.0 0.00 0.00 0.00 1020.4
20210923121502 0 57 0.0 0.0 0.00 0.00 0.00 1020.1
20210923121002 0 62 2.0 2.0 0.00 0.00 0.00 1020.2
20210923120502 0 101 0.0 0.0 0.00 0.00 0.00 1020.4
20210923120002 0 9 2.0 3.0 0.00 0.00 0.00 1020.1
20210923115502 0 20 2.0 3.0 0.00 0.00 0.00 1020.2
20210923115002 0 77 1.0 2.0 0.00 0.00 0.00 1020.3
20210923114502 0 49 2.0 2.0 0.00 0.00 0.00 1020.0
20210923114002 0 64 2.0 3.0 0.00 0.00 0.00 1020.1
20210923113503 0 98 0.0 0.0 0.00 0.00 0.00 1020.1
20210923113002 0 100 0.0 0.0 0.00 0.00 0.00 1020.1
20210923112502 0 86 1.0 2.0 0.00 0.00 0.00 1020.1
20210923112002 0 84 1.0 2.0 0.00 0.00 0.00 1020.1
20210923111503 0 82 1.0 2.0 0.00 0.00 0.00 1020.2
20210923111002 0 71 0.0 0.0 0.00 0.00 0.00 1019.8
20210923110502 0 70 0.0 0.0 0.00 0.00 0.00 1019.9
20210923110002 0 74 0.0 0.0 0.00 0.00 0.00 1019.7
20210923105502 0 70 0.0 0.0 0.00 0.00 0.00 1019.9
20210923105002 0 70 0.0 0.0 0.00 0.00 0.00 1019.7
20210923104502 0 70 1.0 2.0 0.00 0.00 0.00 1019.8
20210923104002 0 78 0.0 0.0 0.00 0.00 0.00 1019.7
20210923103502 0 81 0.0 0.0 0.00 0.00 0.00 1019.8
20210923103003 0 80 0.0 0.0 0.00 0.00 0.00 1019.6
20210923102502 0 81 0.0 0.0 0.00 0.00 0.00 1019.8
20210923102003 0 78 0.0 0.0 0.00 0.00 0.00 1019.6
20210923101502 0 77 0.0 0.0 0.00 0.00 0.00 1019.6
20210923101003 0 78 0.0 0.0 0.00 0.00 0.00 1019.9
20210923100502 0 69 1.0 2.0 0.00 0.00 0.00 1019.8
20210923100002 0 75 0.0 0.0 0.00 0.00 0.00 1019.8
20210923095502 0 82 0.0 0.0 0.00 0.00 0.00 1019.7
20210923095002 0 85 0.0 0.0 0.00 0.00 0.00 1019.7
20210923094503 0 83 1.0 2.0 0.00 0.00 0.00 1019.6
20210923094002 0 88 0.0 0.0 0.00 0.00 0.00 1019.8
20210923093502 0 90 0.0 0.0 0.00 0.00 0.00 1019.7
20210923093002 0 69 1.0 2.0 0.00 0.00 0.00 1019.9
20210923092502 0 78 0.0 0.0 0.00 0.00 0.00 1019.9
20210923092002 0 89 0.0 0.0 0.00 0.00 0.00 1019.8
20210923091502 0 94 0.0 0.0 0.00 0.00 0.00 1019.8
20210923091002 0 84 0.0 0.0 0.00 0.00 0.00 1019.9
20210923090502 0 85 0.0 0.0 0.00 0.00 0.00 1019.8
20210923090002 0 101 0.0 0.0 0.00 0.00 0.00 1019.9
20210923085503 0 84 0.0 0.0 0.00 0.00 0.00 1020.1
20210923085002 0 75 1.0 2.0 0.00 0.00 0.00 1019.9
20210923084502 0 94 1.0 2.0 0.00 0.00 0.00 1019.9
20210923084002 0 101 0.0 0.0 0.00 0.00 0.00 1019.8
20210923083502 0 76 2.0 2.0 0.00 0.00 0.00 1019.8
20210923083002 0 94 1.0 2.0 0.00 0.00 0.00 1020.0
20210923082502 0 97 1.0 2.0 0.00 0.00 0.00 1020.1
20210923082002 0 98 1.0 2.0 0.00 0.00 0.00 1020.0
20210923081503 0 358 1.0 2.0 0.00 0.00 0.00 1020.1
20210923081002 0 95 1.0 2.0 0.00 0.00 0.00 1020.2
20210923080502 0 86 1.0 2.0 0.00 0.00 0.00 1019.9
20210923080002 0 95 0.0 0.0 0.00 0.00 0.00 1020.1
20210923075503 0 105 0.0 0.0 0.00 0.00 0.00 1020.1
20210923075002 0 23 3.0 3.0 0.00 0.00 0.00 1020.1
20210923074502 0 100 2.0 3.0 0.00 0.00 0.00 1020.3
20210923074002 0 94 1.0 2.0 0.00 0.00 0.00 1020.1
20210923073502 0 19 3.0 4.0 0.00 0.00 0.00 1020.2
20210923073002 0 98 0.0 0.0 0.00 0.00 0.00 1020.2
20210923072502 0 98 1.0 2.0 0.00 0.00 0.00 1020.2
20210923072003 0 96 1.0 2.0 0.00 0.00 0.00 1020.0
20210923071502 0 97 0.0 0.0 0.00 0.00 0.00 1020.1
20210923071002 0 77 0.0 0.0 0.00 0.00 0.00 1020.0
20210923070502 0 65 1.0 2.0 0.00 0.00 0.00 1020.1